When you browse on this site, cookies collect data to enhance your experience and personalize the content and advertising you see.
Visit our Privacy Policy to learn more. By continuing to use the site, you agree to this use of cookies and data.
  • In Slovakia
  • List of Countries
  • For 7 days
  • Water Temperature
  • Satellite Maps
  • Weather Map
  • Weather Widgets
  • user-avatar
    Login

    Hourly Weather Czlopy

    Today, 9 December, Sunday

    Time Temperature Precipitation Wind Pressure Humidity
    00:00 +3°C° 0 mm 6 mps 740 mmHg 78%
    01:00 +3°C° 0 mm 6 mps 740 mmHg 80%
    02:00 +3°C° 0 mm 6 mps 739 mmHg 80%
    03:00 +3°C° 0 mm 6 mps 738 mmHg 81%
    04:00 +2°C° 0 mm 6 mps 737 mmHg 82%
    05:00 +3°C° 0.2 mm 6 mps 736 mmHg 82%
    06:00 +3°C° 0.2 mm 7 mps 736 mmHg 82%
    07:00 +3°C° 0 mm 7 mps 735 mmHg 82%
    08:00 +3°C° 0.4 mm 7 mps 734 mmHg 81%
    09:00 +4°C° 0.4 mm 7 mps 734 mmHg 79%
    10:00 +5°C° 0.4 mm 8 mps 734 mmHg 78%
    11:00 +5°C° 0.2 mm 7 mps 734 mmHg 78%
    12:00 +5°C° 0.2 mm 7 mps 734 mmHg 79%
    13:00 +5°C° 0 mm 7 mps 734 mmHg 77%
    14:00 +5°C° 0.2 mm 7 mps 734 mmHg 78%
    15:00 +5°C° 0.2 mm 7 mps 735 mmHg 79%
    16:00 +5°C° 0.2 mm 6 mps 735 mmHg 80%
    17:00 +5°C° 0.1 mm 6 mps 735 mmHg 81%
    18:00 +5°C° 0.1 mm 6 mps 736 mmHg 82%
    19:00 +4°C° 0.1 mm 6 mps 736 mmHg 83%
    20:00 +4°C° 0.1 mm 6 mps 736 mmHg 83%
    21:00 +4°C° 0.1 mm 6 mps 737 mmHg 82%
    22:00 +4°C° 0.1 mm 6 mps 737 mmHg 82%
    23:00 +4°C° 0.3 mm 6 mps 737 mmHg 82%

    Tomorrow, 10 December, Monday

    Time Temperature Precipitation Wind Pressure Humidity
    00:00 +4°C° 0.3 mm 7 mps 737 mmHg 82%
    01:00 +4°C° 0.3 mm 7 mps 737 mmHg 81%
    02:00 +4°C° 0.4 mm 7 mps 738 mmHg 81%
    03:00 +4°C° 0.4 mm 8 mps 738 mmHg 80%
    04:00 +2°C° 0.4 mm 8 mps 738 mmHg 79%
    05:00 +2°C° 0.2 mm 8 mps 739 mmHg 76%
    06:00 +2°C° 0.2 mm 8 mps 739 mmHg 74%
    07:00 +2°C° 0.2 mm 7 mps 740 mmHg 71%
    08:00 +1°C° 0.1 mm 8 mps 741 mmHg 71%
    09:00 +2°C° 0.1 mm 8 mps 742 mmHg 71%
    10:00 +2°C° 0.1 mm 8 mps 742 mmHg 70%
    11:00 +2°C° 0 mm 8 mps 743 mmHg 68%
    12:00 +2°C° 0 mm 8 mps 743 mmHg 66%
    13:00 +2°C° 0 mm 8 mps 743 mmHg 64%
    14:00 +2°C° 0.1 mm 8 mps 744 mmHg 65%
    15:00 +2°C° 0.1 mm 7 mps 744 mmHg 66%
    16:00 +2°C° 0.1 mm 6 mps 744 mmHg 68%
    17:00 +1°C° 0 mm 6 mps 745 mmHg 69%
    18:00 +1°C° 0 mm 6 mps 745 mmHg 71%
    19:00 -1°C° 0 mm 6 mps 745 mmHg 73%
    20:00 0°C° 0 mm 5 mps 745 mmHg 74%
    21:00 0°C° 0 mm 5 mps 745 mmHg 76%
    22:00 0°C° 0 mm 5 mps 745 mmHg 78%
    23:00 -1°C° 0 mm 5 mps 745 mmHg 80%

    Day after tomorrow, 11 December, Tuesday

    Time Temperature Precipitation Wind Pressure Humidity
    00:00 -1°C° 0 mm 5 mps 745 mmHg 82%
    01:00 -1°C° 0 mm 5 mps 745 mmHg 85%
    02:00 -1°C° 0.1 mm 5 mps 745 mmHg 85%
    03:00 -1°C° 0.1 mm 5 mps 745 mmHg 86%
    04:00 -1°C° 0.1 mm 5 mps 745 mmHg 86%
    05:00 -1°C° 0.3 mm 4 mps 745 mmHg 87%
    06:00 0°C° 0.3 mm 4 mps 745 mmHg 87%
    07:00 0°C° 0.3 mm 4 mps 744 mmHg 88%
    08:00 0°C° 0.3 mm 4 mps 745 mmHg 89%
    09:00 +1°C° 0.3 mm 3 mps 745 mmHg 89%
    10:00 +1°C° 0.3 mm 3 mps 745 mmHg 90%
    11:00 +1°C° 0.1 mm 3 mps 745 mmHg 90%
    12:00 +3°C° 0.1 mm 2 mps 745 mmHg 90%
    13:00 +3°C° 0.1 mm 2 mps 746 mmHg 90%
    14:00 +3°C° 0.1 mm 2 mps 746 mmHg 92%
    15:00 +2°C° 0.1 mm 2 mps 746 mmHg 93%
    16:00 +3°C° 0.1 mm 1 mps 747 mmHg 94%
    17:00 +2°C° 0 mm 2 mps 747 mmHg 95%
    18:00 +2°C° 0 mm 2 mps 748 mmHg 95%
    19:00 +1°C° 0 mm 2 mps 748 mmHg 95%
    20:00 +1°C° 0 mm 2 mps 748 mmHg 95%
    21:00 +1°C° 0 mm 2 mps 749 mmHg 96%
    22:00 +1°C° 0 mm 2 mps 749 mmHg 96%
    23:00 +1°C° 0 mm 2 mps 750 mmHg 96%

    12 December, Wednesday

    Time Temperature Precipitation Wind Pressure Humidity
    00:00 +1°C° 0 mm 2 mps 750 mmHg 95%
    01:00 +1°C° 0 mm 2 mps 751 mmHg 95%
    02:00 0°C° 0 mm 3 mps 751 mmHg 95%
    03:00 -1°C° 0 mm 3 mps 751 mmHg 95%
    04:00 -1°C° 0 mm 3 mps 751 mmHg 95%
    05:00 -1°C° 0 mm 2 mps 752 mmHg 95%
    06:00 -2°C° 0 mm 2 mps 752 mmHg 94%
    07:00 -2°C° 0 mm 2 mps 753 mmHg 94%
    08:00 -2°C° 0 mm 2 mps 753 mmHg 93%
    09:00 -1°C° 0 mm 2 mps 754 mmHg 91%
    10:00 -1°C° 0 mm 2 mps 754 mmHg 89%
    11:00 -1°C° 0 mm 2 mps 754 mmHg 88%
    12:00 +1°C° 0 mm 2 mps 754 mmHg 86%
    13:00 +1°C° 0 mm 2 mps 754 mmHg 85%
    14:00 +1°C° 0 mm 2 mps 755 mmHg 87%
    15:00 -1°C° 0 mm 2 mps 755 mmHg 89%
    16:00 -1°C° 0 mm 2 mps 755 mmHg 91%
    17:00 -1°C° 0 mm 2 mps 755 mmHg 91%
    18:00 -2°C° 0 mm 2 mps 755 mmHg 91%
    19:00 -2°C° 0 mm 2 mps 755 mmHg 91%
    20:00 0°C° 0 mm 1 mps 756 mmHg 91%
    21:00 0°C° 0 mm 1 mps 756 mmHg 91%
    22:00 0°C° 0 mm 1 mps 756 mmHg 91%
    23:00 0°C° 0 mm 1 mps 756 mmHg 91%

    13 December, Thursday

    Time Temperature Precipitation Wind Pressure Humidity
    00:00 0°C° 0 mm 1 mps 756 mmHg 92%
    01:00 0°C° 0 mm 1 mps 756 mmHg 92%
    02:00 0°C° 0 mm 1 mps 756 mmHg 92%
    03:00 0°C° 0 mm 1 mps 756 mmHg 92%
    04:00 0°C° 0 mm 1 mps 756 mmHg 92%
    05:00 0°C° 0 mm 1 mps 756 mmHg 92%
    06:00 0°C° 0 mm 1 mps 756 mmHg 93%
    07:00 0°C° 0 mm 1 mps 756 mmHg 93%
    08:00 0°C° 0 mm 1 mps 756 mmHg 92%
    09:00 +1°C° 0 mm 1 mps 756 mmHg 90%
    10:00 +1°C° 0 mm 1 mps 756 mmHg 89%
    11:00 +1°C° 0 mm 1 mps 756 mmHg 88%
    12:00 +1°C° 0 mm 1 mps 755 mmHg 87%
    13:00 +2°C° 0 mm 1 mps 755 mmHg 86%
    14:00 +1°C° 0 mm 1 mps 755 mmHg 87%
    15:00 +1°C° 0 mm 1 mps 755 mmHg 89%
    16:00 +1°C° 0 mm 1 mps 755 mmHg 90%
    17:00 +1°C° 0 mm 1 mps 754 mmHg 91%
    18:00 +1°C° 0 mm 1 mps 754 mmHg 92%
    19:00 +1°C° 0 mm 1 mps 754 mmHg 93%
    20:00 0°C° 0 mm 1 mps 754 mmHg 93%
    21:00 0°C° 0 mm 1 mps 754 mmHg 93%
    22:00 0°C° 0 mm 1 mps 754 mmHg 93%
    23:00 0°C° 0 mm 1 mps 754 mmHg 93%

    14 December, Friday

    Time Temperature Precipitation Wind Pressure Humidity
    00:00 0°C° 0 mm 1 mps 754 mmHg 92%
    01:00 0°C° 0 mm 1 mps 754 mmHg 92%
    02:00 0°C° 0 mm 1 mps 754 mmHg 92%
    03:00 0°C° 0 mm 1 mps 754 mmHg 91%
    04:00 0°C° 0 mm 1 mps 754 mmHg 91%
    05:00 0°C° 0 mm 1 mps 754 mmHg 91%
    06:00 0°C° 0 mm 1 mps 754 mmHg 91%
    07:00 0°C° 0 mm 1 mps 754 mmHg 92%
    08:00 0°C° 0 mm 1 mps 755 mmHg 91%
    09:00 0°C° 0 mm 1 mps 755 mmHg 90%
    10:00 0°C° 0 mm 1 mps 755 mmHg 89%
    11:00 +1°C° 0 mm 1 mps 755 mmHg 87%
    12:00 +1°C° 0 mm 1 mps 755 mmHg 86%
    13:00 +1°C° 0 mm 1 mps 755 mmHg 85%
    14:00 +1°C° 0 mm 1 mps 755 mmHg 86%
    15:00 +1°C° 0 mm 1 mps 755 mmHg 87%
    16:00 -1°C° 0 mm 2 mps 755 mmHg 88%
    17:00 -1°C° 0 mm 2 mps 754 mmHg 87%
    18:00 -1°C° 0 mm 2 mps 754 mmHg 86%
    19:00 -1°C° 0 mm 3 mps 754 mmHg 85%
    20:00 -1°C° 0 mm 2 mps 754 mmHg 85%
    21:00 -2°C° 0 mm 2 mps 754 mmHg 85%
    22:00 -2°C° 0 mm 2 mps 755 mmHg 85%
    23:00 -2°C° 0 mm 2 mps 755 mmHg 85%
    Show more